Location: Morlupo
(42.1333°N, 12.5000°E)
Time: 15:43:02
(UTC+00:00)

Iridium 4 Rocket - Pass Details

Date: 18 September 2020
Orbit: 584 x 905 km, 86.9° (Epoch: 26 October)

Event Time Altitude Azimuth Distance (km) Brightness Sun altitude
Rises 17:39:22 0° 173° (S) 3,021 6.4 -5.6°
Reaches altitude 10° 17:41:32 10° 171° (S) 2,155 5.7 -6.0°
Maximum altitude 17:46:18 68° 89° (E) 805 3.4 -6.8°
Drops below altitude 10° 17:51:35 10° 7° (N) 2,382 6.1 -7.8°
Sets 17:54:05 0° 5° (N) 3,365 6.9 -8.3°
